Change the Weather History Date:

Wednesday, November 7, 2012

  Actual Average (KHVN) Record (KHVN)
Temperature  
Mean Temperature 33 °F -  
Max Temperature 36 °F 52 °F 123 °F (1998)
Min Temperature 30 °F 37 °F 25 °F (2002)
Degree Days  
Heating Degree Days 32    
Moisture  
Dew Point 27 °F    
Average Humidity 83    
Maximum Humidity 93    
Minimum Humidity 59    
Precipitation  
Precipitation 0.27 in - - ()
Sea Level Pressure  
Sea Level Pressure 29.87 in    
Wind  
Wind Speed 13 mph (North)    
Max Wind Speed 21 mph    
Max Gust Speed 34 mph    
Visibility 3 miles    
Events Fog , Snow    
Averages and records for this station are not official NWS values.
T = Trace of Precipitation, MM = Missing Value Source: NWS Daily Summary

Daily Weather History Graph

Daily Weather History Graph

Search for Another Location

Airport or City:

Trip Planner

Search our weather history database for the weather conditions in past years. The results will help you decide how hot, cold, wet, or windy it might be!

Date:

Astronomy

Nov. 07, 2012 Rise Set
Actual Time 6:30 AM EST 4:38 PM EST
Civil Twilight 6:01 AM EST 5:07 PM EST
Nautical Twilight 5:28 AM EST 5:40 PM EST
Astronomical Twilight 4:56 AM EST 6:13 PM EST
Moon No Moon Rise 12:50 PM EST (11/7)
Length of Visible Light 11h 06m
Length of Day
10h 07m
Last Quarter, 43% of the Moon is Illuminated
Nov 7
Last Quarter
Nov 13
New
Nov 20
First Quarter
Nov 28
Full
Dec 6
Last Quarter

Hourly Weather History & Observations

Time (EST) Temp. Windchill Dew Point Humidity Pressure Visibility Wind Dir Wind Speed Gust Speed Precip Events Conditions
12:53 AM 32.0 °F 25.6 °F 19.0 °F 59% 30.13 in 10.0 mi North 6.9 mph - N/A   Clear
1:53 AM 32.0 °F 26.4 °F 19.9 °F 61% 30.12 in 10.0 mi NNE 5.8 mph - N/A   Clear
2:53 AM 32.0 °F 24.2 °F 19.9 °F 61% 30.09 in 10.0 mi NNE 9.2 mph - N/A   Clear
3:53 AM 33.1 °F 24.9 °F 21.0 °F 61% 30.04 in 10.0 mi North 10.4 mph 18.4 mph N/A   Clear
4:53 AM 34.0 °F 26.0 °F 21.9 °F 61% 30.05 in 10.0 mi North 10.4 mph 20.7 mph N/A   Overcast
5:53 AM 34.0 °F 26.6 °F 21.9 °F 61% 30.02 in 10.0 mi North 9.2 mph - N/A   Clear
6:53 AM 34.0 °F 26.6 °F 21.9 °F 61% 30.00 in 10.0 mi North 9.2 mph 20.7 mph N/A   Clear
7:53 AM 34.0 °F 25.0 °F 21.9 °F 61% 30.00 in 10.0 mi NNE 12.7 mph 18.4 mph N/A   Clear
8:53 AM 35.1 °F 27.4 °F 23.0 °F 61% 29.96 in 10.0 mi North 10.4 mph 25.3 mph N/A   Mostly Cloudy
9:53 AM 36.0 °F 26.0 °F 23.0 °F 59% 29.96 in 10.0 mi North 17.3 mph 26.5 mph N/A   Overcast
10:53 AM 36.0 °F 25.6 °F 24.1 °F 62% 29.93 in 7.0 mi North 18.4 mph 26.5 mph 0.00 in Snow Light Snow
11:03 AM 35.6 °F 25.5 °F 24.8 °F 65% 29.92 in 4.0 mi NNE 17.3 mph 27.6 mph 0.00 in Snow Light Snow
11:10 AM 35.6 °F 26.2 °F 24.8 °F 65% 29.91 in 1.8 mi NNE 15.0 mph 27.6 mph 0.00 in Snow Light Snow
11:30 AM 33.8 °F 24.8 °F 28.4 °F 81% 29.91 in 0.8 mi North 12.7 mph 25.3 mph 0.00 in Snow Light Snow
11:43 AM 32.0 °F 22.5 °F 28.4 °F 87% 29.89 in 0.2 mi North 12.7 mph 23.0 mph 0.01 in Fog , Snow Heavy Snow
11:53 AM 32.0 °F 22.5 °F 30.0 °F 92% 29.89 in 0.2 mi North 12.7 mph 21.9 mph 0.02 in Fog , Snow Heavy Snow
12:00 PM 32.0 °F 22.5 °F 30.2 °F 93% 29.89 in 0.2 mi North 12.7 mph 23.0 mph 0.01 in Fog , Snow Heavy Snow
12:10 PM 32.0 °F 23.0 °F 30.2 °F 93% 29.89 in 0.2 mi North 11.5 mph 17.3 mph 0.02 in Fog , Snow Heavy Snow
12:27 PM 32.0 °F 23.6 °F 30.2 °F 93% 29.88 in 0.2 mi North 10.4 mph 19.6 mph 0.03 in Fog , Snow Heavy Snow
12:35 PM 32.0 °F 23.0 °F 30.2 °F 93% 29.88 in 0.5 mi North 11.5 mph - 0.04 in Fog , Snow Snow
12:50 PM 33.8 °F 24.3 °F 30.2 °F 87% 29.88 in 0.5 mi North 13.8 mph 18.4 mph 0.05 in Fog , Snow Snow
12:53 PM 33.1 °F 24.4 °F 30.9 °F 92% 29.88 in 0.5 mi North 11.5 mph 20.7 mph 0.05 in Fog , Snow Snow
1:02 PM 33.8 °F 23.9 °F 30.2 °F 87% 29.87 in 0.2 mi North 15.0 mph 26.5 mph 0.01 in Fog , Snow Heavy Snow
1:10 PM 33.8 °F 23.5 °F 30.2 °F 87% 29.87 in 0.5 mi North 16.1 mph 27.6 mph 0.02 in Fog , Snow Snow
1:27 PM 33.8 °F 23.2 °F 30.2 °F 87% 29.86 in 1.0 mi North 17.3 mph 27.6 mph 0.03 in Snow Light Snow
1:34 PM 33.8 °F 24.8 °F 30.2 °F 87% 29.86 in 0.8 mi North 12.7 mph 25.3 mph 0.04 in Snow Light Snow
1:53 PM 33.1 °F 22.6 °F 30.0 °F 89% 29.86 in 0.8 mi North 16.1 mph 27.6 mph 0.05 in Snow Light Snow
2:06 PM 33.8 °F 23.5 °F 30.2 °F 87% 29.84 in 0.8 mi North 16.1 mph 25.3 mph 0.00 in Snow Light Snow
2:31 PM 33.8 °F 22.2 °F 30.2 °F 87% 29.84 in 1.0 mi North 20.7 mph 28.8 mph 0.01 in Snow Light Snow
2:48 PM 32.0 °F 19.8 °F 28.4 °F 87% 29.84 in 0.8 mi North 20.7 mph 28.8 mph 0.01 in Snow Light Snow
2:53 PM 32.0 °F 21.2 °F 28.9 °F 88% 29.84 in 0.5 mi North 16.1 mph 28.8 mph 0.01 in Fog , Snow Snow
3:44 PM 30.2 °F 18.5 °F 28.4 °F 93% 29.85 in 0.2 mi North 17.3 mph 31.1 mph 0.02 in Fog , Snow Heavy Snow
3:53 PM 30.9 °F 19.1 °F 28.0 °F 89% 29.85 in 0.2 mi North 18.4 mph 26.5 mph 0.02 in Fog , Snow Heavy Snow
4:12 PM 30.2 °F 19.3 °F 28.4 °F 93% 29.84 in 0.5 mi North 15.0 mph 24.2 mph 0.01 in Fog , Snow Snow
4:30 PM 30.2 °F 19.3 °F 26.6 °F 86% 29.84 in 0.5 mi North 15.0 mph 26.5 mph 0.02 in Fog , Snow Snow
4:53 PM 30.0 °F 17.9 °F 27.0 °F 88% 29.83 in 0.8 mi North 18.4 mph 32.2 mph 0.02 in Snow Light Snow
5:27 PM 30.2 °F 18.1 °F 26.6 °F 86% 29.81 in 0.8 mi North 18.4 mph 33.4 mph 0.00 in Snow Light Snow
5:53 PM 30.0 °F 18.7 °F 27.0 °F 88% 29.82 in 0.8 mi North 16.1 mph 27.6 mph 0.01 in Snow Light Snow
6:21 PM 30.2 °F 18.9 °F 26.6 °F 86% 29.82 in 0.8 mi North 16.1 mph 28.8 mph 0.01 in Snow Light Snow
6:53 PM 30.0 °F 18.3 °F 27.0 °F 88% 29.83 in 0.8 mi North 17.3 mph 31.1 mph 0.02 in Snow Light Snow
7:15 PM 30.2 °F 18.5 °F 26.6 °F 86% 29.81 in 0.8 mi North 17.3 mph 28.8 mph 0.00 in Snow Light Snow
7:53 PM 30.9 °F 18.7 °F 27.0 °F 85% 29.81 in 0.8 mi North 19.6 mph 33.4 mph 0.01 in Snow Light Snow
8:22 PM 30.2 °F 19.3 °F 28.4 °F 93% 29.80 in 0.5 mi North 15.0 mph 28.8 mph 0.01 in Fog , Snow Snow
8:53 PM 30.9 °F 20.2 °F 28.0 °F 89% 29.81 in 0.5 mi North 15.0 mph 32.2 mph 0.03 in Fog , Snow Snow
9:13 PM 30.2 °F 17.4 °F 28.4 °F 93% 29.79 in 1.0 mi North 20.7 mph 34.5 mph 0.00 in Snow Light Snow
9:20 PM 30.2 °F 18.5 °F 28.4 °F 93% 29.79 in 0.8 mi North 17.3 mph 31.1 mph 0.00 in Snow Light Snow
9:28 PM 30.2 °F 18.9 °F 26.6 °F 86% 29.79 in 1.0 mi North 16.1 mph 26.5 mph 0.01 in Snow Light Snow
9:53 PM 30.9 °F 19.4 °F 28.0 °F 89% 29.78 in 1.2 mi North 17.3 mph 26.5 mph 0.01 in Snow Light Snow
10:32 PM 30.2 °F 18.9 °F 28.4 °F 93% 29.76 in 2.0 mi North 16.1 mph 25.3 mph 0.01 in Snow Light Snow
10:45 PM 30.2 °F 18.1 °F 28.4 °F 93% 29.75 in 1.8 mi North 18.4 mph 26.5 mph 0.01 in Snow Light Snow
10:53 PM 30.9 °F 20.7 °F 28.0 °F 89% 29.76 in 1.8 mi North 13.8 mph 25.3 mph 0.02 in Snow Light Snow
11:01 PM 30.2 °F 18.5 °F 28.4 °F 93% 29.75 in 1.5 mi North 17.3 mph 33.4 mph 0.00 in Snow Light Snow
11:10 PM 30.2 °F 18.9 °F 28.4 °F 93% 29.75 in 1.0 mi North 16.1 mph 29.9 mph 0.00 in Snow Light Snow
11:18 PM 32.0 °F 20.1 °F 28.4 °F 87% 29.74 in 1.2 mi North 19.6 mph 27.6 mph 0.00 in Snow Light Snow
11:53 PM 32.0 °F 20.8 °F 28.0 °F 85% 29.74 in 1.8 mi North 17.3 mph 33.4 mph 0.00 in Snow Light Snow